Regional Weather Roundup
Issued by NWS

Home | Current Version | Previous Version | Text Only | Print | Product List | Glossary On
Versions: 1 2 3 4 5 6 7 8 9 10 11 12 13 14 15 16 17 18 19 20 21 22 23 24 25 26 27 28 29 30 31 32 33 34 35 36 37 38 39 40 41 42 43 44 45 46 47 48 49 50
000
ASUS44 KOUN 030710
RWROK

WEATHER ROUNDUP FOR OKLAHOMA
NATIONAL WEATHER SERVICE NORMAN OK
200 AM CDT WED JUN 03 2015

NOTE: "FAIR" INDICATES FEW OR NO CLOUDS BELOW 12,000 FEET WITH NO
      SIGNIFICANT WEATHER AND/OR OBSTRUCTIONS TO VISIBILITY.

OKZ001>007-009>012-014-015-017-030800-
NORTHWEST OKLAHOMA AND THE PANHANDLE

CITY           SKY/WX    TMP DP  RH WIND       PRES   REMARKS
GAGE           CLEAR     72  63  73 S22       29.85F
GUYMON         CLEAR     70  60  70 S14       29.83F
ENID/WOODRING  CLEAR     70  66  88 S9        29.87F
$$

OKZ016-021>023-033>039-044-045-030800-
SOUTHWEST OKLAHOMA

CITY           SKY/WX    TMP DP  RH WIND       PRES   REMARKS
LAWTON/REGL    CLEAR     73  65  75 SE9       29.90F
LAWTON/FT SILL CLEAR     72  68  87 S12       29.89S
FREDERICK      CLEAR     73  66  78 SE12      29.86S
CLINTON        CLEAR     72  65  78 S15       29.90F
HOBART         CLEAR     73  65  75 S17       29.89F
ALTUS AFB      CLEAR     71  67  87 SE10      29.87F
$$

OKZ018>020-024>031-030800-
CENTRAL OKLAHOMA

CITY           SKY/WX    TMP DP  RH WIND       PRES   REMARKS
OKLAHOMA CITY  PTCLDY    71  64  78 S10       29.90F
OKC/WILEY POST CLEAR     73  64  73 S16       29.90F
OKC/TINKER AFB CLEAR     71  65  80 S10       29.90F
STILLWATER     CLEAR     71  65  81 SE10      29.90F
GUTHRIE        CLEAR     72  65  78 S9        29.90F
$$

OKZ008-013-054>072-030800-
NORTHEAST OKLAHOMA

CITY           SKY/WX    TMP DP  RH WIND       PRES   REMARKS
TULSA          MOCLDY    74  67  78 S13       29.91F
TULSA/JONES    CLEAR     73  65  75 S7        29.92F
PONCA CITY     CLEAR     73  66  78 S15       29.89F
BARTLESVILLE   CLEAR     69  68  96 S6        29.92F
MUSKOGEE       CLEAR     69  66  90 SE6       29.95F
$$

OKZ032-040>043-046>053-073>077-030800-
SOUTH CENTRAL/SOUTHEAST OKLAHOMA

CITY           SKY/WX    TMP DP  RH WIND       PRES   REMARKS
ARDMORE/DWNTWN CLEAR     70  63  78 S6        29.93F
MCALESTER      PTCLDY    71  64  78 SE6       29.95F
$$



USA.gov is the U.S. government's official web portal to all federal, state and local government web resources and services.